Change the Weather History Date:

Sunday, November 25, 2012

  Actual Average Record
Temperature  
Mean Temperature 29 °F -  
Max Temperature 32 °F 37 °F 58 °F (1984)
Min Temperature 26 °F 24 °F -23 °F (1950)
Degree Days  
Heating Degree Days 36    
Moisture  
Dew Point 24 °F    
Average Humidity 83    
Maximum Humidity 93    
Minimum Humidity 64    
Precipitation  
Precipitation 0.06 in - - ()
Sea Level Pressure  
Sea Level Pressure 29.81 in    
Wind  
Wind Speed 6 mph (SW)    
Max Wind Speed 20 mph    
Max Gust Speed 28 mph    
Visibility 6 miles    
Events Snow    
Averages and records for this station are not official NWS values.
T = Trace of Precipitation, MM = Missing Value Source: NWS Daily Summary

Daily Weather History Graph

Daily Weather History Graph

Search for Another Location

Airport or City:

Trip Planner

Search our weather history database for the weather conditions in past years. The results will help you decide how hot, cold, wet, or windy it might be!

Date:

Astronomy

Nov. 25, 2012 Rise Set
Actual Time 7:52 AM EST 4:59 PM EST
Civil Twilight 7:19 AM EST 5:33 PM EST
Nautical Twilight 6:42 AM EST 6:09 PM EST
Astronomical Twilight 6:07 AM EST 6:45 PM EST
Moon 3:21 PM EST (11/25) 4:59 AM EST (11/25)
Length of Visible Light 10h 13m
Length of Day
9h 07m
Waxing Gibbous, 93% of the Moon is Illuminated
Nov 25
Waxing Gibbous
Nov 28
Full
Dec 6
Last Quarter
Dec 13
New
Dec 20
First Quarter

Hourly Weather History & Observations

Time (EST) Temp. Windchill Dew Point Humidity Pressure Visibility Wind Dir Wind Speed Gust Speed Precip Events Conditions
12:54 AM 28.0 °F 24.2 °F 21.0 °F 75% 29.94 in 10.0 mi SE 3.5 mph - N/A   Overcast
1:37 AM 26.6 °F 22.6 °F 21.2 °F 80% 29.89 in 1.5 mi SE 3.5 mph - 0.00 in Snow Light Snow
1:54 AM 27.0 °F 23.0 °F 23.0 °F 85% 29.91 in 1.8 mi SE 3.5 mph - 0.00 in Snow Light Snow
2:01 AM 26.6 °F 21.2 °F 23.0 °F 86% 29.87 in 2.5 mi SE 4.6 mph - 0.00 in Snow Light Snow
2:09 AM 26.6 °F 21.2 °F 23.0 °F 86% 29.87 in 4.0 mi SE 4.6 mph - 0.00 in Snow Light Snow
2:21 AM 26.6 °F 19.1 °F 24.8 °F 93% 29.87 in 2.0 mi South 6.9 mph - 0.00 in Snow Light Snow
2:29 AM 26.6 °F 21.2 °F 24.8 °F 93% 29.87 in 2.5 mi South 4.6 mph - 0.00 in Snow Light Snow
2:54 AM 27.0 °F 18.0 °F 24.1 °F 89% 29.89 in 2.5 mi South 9.2 mph - 0.00 in Snow Light Snow
3:03 AM 26.6 °F 18.2 °F 23.0 °F 86% 29.85 in 3.0 mi South 8.1 mph - 0.00 in Snow Light Snow
3:54 AM 27.0 °F 20.5 °F 23.0 °F 85% 29.85 in 4.0 mi South 5.8 mph - 0.00 in Snow Light Snow
4:54 AM 27.0 °F 20.5 °F 23.0 °F 85% 29.83 in 6.0 mi SSE 5.8 mph - 0.00 in Snow Light Snow
5:07 AM 26.6 °F 21.2 °F 24.8 °F 93% 29.79 in 8.0 mi SSE 4.6 mph - 0.00 in   Overcast
5:54 AM 27.0 °F 21.6 °F 24.1 °F 89% 29.81 in 8.0 mi Variable 4.6 mph - 0.00 in   Overcast
6:54 AM 27.0 °F 21.6 °F 24.1 °F 89% 29.80 in 5.0 mi SSE 4.6 mph - 0.00 in Snow Light Snow
7:25 AM 26.6 °F 21.2 °F 24.8 °F 93% 29.76 in 2.0 mi SE 4.6 mph - 0.00 in Snow Light Snow
7:40 AM 26.6 °F 21.2 °F 24.8 °F 93% 29.75 in 4.0 mi SSE 4.6 mph - 0.00 in Snow Light Snow
7:49 AM 26.6 °F 20.0 °F 24.8 °F 93% 29.75 in 2.5 mi SSE 5.8 mph - 0.00 in Snow Light Snow
7:54 AM 27.0 °F 20.5 °F 24.1 °F 89% 29.78 in 2.5 mi SSE 5.8 mph - 0.00 in Snow Light Snow
8:03 AM 26.6 °F 21.2 °F 24.8 °F 93% 29.75 in 4.0 mi SSE 4.6 mph - 0.00 in Snow Light Snow
8:33 AM 26.6 °F 22.6 °F 24.8 °F 93% 29.75 in 6.0 mi SSE 3.5 mph - 0.00 in   Overcast
8:54 AM 28.0 °F - 26.1 °F 92% 29.78 in 6.0 mi Calm Calm - 0.00 in   Overcast
9:11 AM 28.4 °F 24.6 °F 24.8 °F 86% 29.75 in 6.0 mi East 3.5 mph - N/A   Overcast
9:54 AM 28.9 °F - 26.1 °F 89% 29.78 in 4.0 mi Calm Calm - 0.00 in   Overcast
10:24 AM 28.4 °F - 24.8 °F 86% 29.75 in 6.0 mi Calm Calm - 0.01 in   Overcast
10:54 AM 28.9 °F 25.2 °F 25.0 °F 85% 29.78 in 6.0 mi NW 3.5 mph - 0.01 in   Overcast
11:54 AM 30.0 °F 26.5 °F 26.1 °F 85% 29.77 in 10.0 mi NW 3.5 mph - 0.00 in   Overcast
12:14 PM 30.2 °F 26.7 °F 26.6 °F 86% 29.73 in 10.0 mi NW 3.5 mph - N/A   Overcast
12:27 PM 30.2 °F - 26.6 °F 86% 29.73 in 10.0 mi Calm Calm - N/A   Overcast
12:54 PM 30.0 °F - 27.0 °F 88% 29.76 in 10.0 mi Calm Calm - N/A   Overcast
1:54 PM 30.0 °F 26.5 °F 26.1 °F 85% 29.76 in 10.0 mi West 3.5 mph - 0.00 in   Overcast
2:13 PM 30.2 °F 22.6 °F 26.6 °F 86% 29.73 in 10.0 mi West 8.1 mph - N/A   Overcast
2:54 PM 32.0 °F 24.2 °F 24.1 °F 73% 29.76 in 10.0 mi WNW 9.2 mph - N/A   Overcast
3:13 PM 32.0 °F 23.6 °F 24.8 °F 75% 29.73 in 10.0 mi WNW 10.4 mph - N/A   Overcast
3:54 PM 32.0 °F 23.0 °F 25.0 °F 75% 29.78 in 5.0 mi West 11.5 mph - 0.00 in Snow Light Snow
4:15 PM 30.2 °F 24.3 °F 24.8 °F 80% 29.76 in 2.0 mi West 5.8 mph - 0.01 in Snow Light Snow
4:26 PM 30.2 °F 20.8 °F 26.6 °F 86% 29.76 in 1.0 mi WNW 11.5 mph - 0.03 in Snow Light Snow
4:46 PM 30.2 °F 23.4 °F 26.6 °F 86% 29.77 in 3.0 mi West 6.9 mph - 0.04 in Snow Light Snow
4:54 PM 30.9 °F 23.5 °F 27.0 °F 85% 29.80 in 4.0 mi West 8.1 mph - 0.04 in Snow Light Snow
5:29 PM 30.2 °F 23.4 °F 26.6 °F 86% 29.78 in 10.0 mi WNW 6.9 mph - 0.00 in   Overcast
5:54 PM 32.0 °F 23.0 °F 25.0 °F 75% 29.82 in 10.0 mi WNW 11.5 mph - 0.00 in   Overcast
6:54 PM 32.0 °F 21.6 °F 24.1 °F 73% 29.84 in 10.0 mi WNW 15.0 mph 18.4 mph N/A   Overcast
7:54 PM 30.9 °F 22.2 °F 23.0 °F 72% 29.86 in 3.0 mi West 10.4 mph 21.9 mph 0.01 in Snow Light Snow
8:18 PM 30.2 °F 20.2 °F 24.8 °F 80% 29.83 in 4.0 mi WNW 12.7 mph 21.9 mph 0.00 in Snow Light Snow
8:54 PM 32.0 °F 21.6 °F 21.9 °F 66% 29.87 in 9.0 mi WNW 15.0 mph 21.9 mph 0.00 in   Overcast
9:54 PM 30.9 °F 18.7 °F 21.9 °F 69% 29.89 in 6.0 mi NW 19.6 mph 25.3 mph 0.00 in Snow Light Snow
10:07 PM 30.2 °F 20.2 °F 21.2 °F 69% 29.86 in 4.0 mi WNW 12.7 mph 26.5 mph 0.00 in Snow Light Snow
10:15 PM 30.2 °F 17.8 °F 21.2 °F 69% 29.87 in 6.0 mi NW 19.6 mph 27.6 mph 0.00 in Snow Light Snow
10:54 PM 30.0 °F 20.5 °F 21.0 °F 69% 29.91 in 9.0 mi NW 11.5 mph - 0.00 in Snow Light Snow
11:54 PM 30.0 °F 19.1 °F 19.0 °F 64% 29.94 in 10.0 mi WNW 15.0 mph - 0.00 in   Overcast